GW0416 Weather Reports


time (UTC)temp
C
wind
direction
speed
KPH
gust
KPH
rain 1hr
cm
rain 24hr
cm
rain mn
cm
humidity
%
barometer
mb
20260902120034 13 304 9.7 14.5 0.00 0.00 0.00 66 1007.5
20260902114534 12 295 9.7 16.1 0.00 0.00 0.00 71 1007.8
20260902113035 12 280 12.9 20.9 0.00 0.00 0.00 69 1007.9
20260902111534 13 257 16.1 25.7 0.00 0.00 0.00 67 1008.0
20260902110042 13 238 16.1 25.7 0.00 0.00 0.00 67 1008.1
20260902104539 11 207 16.1 20.9 0.00 0.00 0.00 69 1008.0
20260902103038 12 205 11.3 16.1 0.00 0.00 0.00 65 1007.8
20260902101536 12 175 8.0 12.9 0.00 0.00 0.00 61 1008.0
20260902100035 13 156 6.4 11.3 0.00 0.00 0.00 61 1008.2
20260902094535 12 121 8.0 12.9 0.00 0.00 0.00 62 1008.2
20260902093040 14 130 0.0 8.0 0.00 0.00 0.00 56 1007.8
20260902091536 15 174 4.8 8.0 0.00 0.00 0.00 56 1008.2
20260902090037 13 127 3.2 6.4 0.00 0.00 0.00 59 1008.5
20260902084536 13 97 4.8 11.3 0.00 0.00 0.00 60 1008.6
20260902083039 14 92 8.0 11.3 0.00 0.00 0.00 57 1008.6
20260902081542 16 141 8.0 12.9 0.00 0.00 0.00 52 1008.7
20260902080047 16 139 6.4 14.5 0.00 0.00 0.00 52 1008.6
20260902074536 15 148 6.4 12.9 0.00 0.00 0.00 53 1008.6
20260902073037 16 128 8.0 11.3 0.00 0.00 0.00 51 1008.4
20260902071540 16 137 9.7 16.1 0.00 0.00 0.00 51 1008.5
20260902070034 16 153 6.4 12.9 0.00 0.00 0.00 51 1008.6
20260902064535 16 134 9.7 11.3 0.00 0.00 0.00 50 1008.7
20260902063037 17 135 6.4 12.9 0.00 0.00 0.00 48 1008.7
20260902061536 17 119 6.4 9.7 0.00 0.00 0.00 47 1008.9
20260902060038 17 143 4.8 8.0 0.00 0.00 0.00 47 1009.0
20260902054538 18 141 6.4 14.5 0.00 0.00 0.00 47 1009.0
20260902053038 17 155 8.0 14.5 0.00 0.00 0.00 47 1009.0
20260902051535 18 136 12.9 16.1 0.00 0.00 0.00 47 1009.0
20260902050036 17 134 11.3 17.7 0.00 0.00 0.00 47 1009.0
20260902044535 17 157 11.3 17.7 0.00 0.00 0.00 47 1009.1
20260902043042 18 146 9.7 17.7 0.00 0.00 0.00 46 1009.0
20260902041534 19 155 11.3 16.1 0.00 0.00 0.00 44 1009.1
20260902040038 20 135 12.9 17.7 0.00 0.00 0.00 43 1009.2
20260902034541 20 152 12.9 17.7 0.00 0.00 0.00 42 1009.3
20260902033038 20 146 12.9 16.1 0.00 0.00 0.00 40 1009.3
20260902031537 20 146 9.7 16.1 0.00 0.00 0.00 40 1009.4
20260902030045 20 157 8.0 14.5 0.00 0.00 0.00 38 1009.3
20260902024534 20 136 11.3 16.1 0.00 0.00 0.00 38 1009.2
20260902023042 21 147 11.3 16.1 0.00 0.00 0.00 38 1009.3
20260902021543 22 126 9.7 12.9 0.00 0.00 0.00 34 1009.1
20260902020037 23 131 11.3 14.5 0.00 0.00 0.00 32 1009.1
20260902014537 24 136 11.3 14.5 0.00 0.00 0.00 30 1009.1
20260902013034 25 132 11.3 16.1 0.00 0.00 0.00 28 1009.1
20260902011536 26 132 12.9 20.9 0.00 0.00 0.00 27 1009.0
20260902010034 27 161 12.9 20.9 0.00 0.00 0.00 24 1009.0
20260902004539 27 142 12.9 17.7 0.00 0.00 0.00 25 1009.1
20260902003037 27 128 11.3 19.3 0.00 0.00 0.00 25 1009.1
20260902001534 27 144 12.9 22.5 0.00 0.00 0.00 25 1009.3
20260902000037 27 129 17.7 25.7 0.00 0.00 0.00 25 1009.5
20260901234537 27 129 20.9 27.4 0.00 0.00 0.00 26 1009.4
20260901233036 27 153 17.7 25.7 0.00 0.00 0.00 26 1009.6
20260901231535 27 165 16.1 30.6 0.00 0.00 0.00 26 1009.8
20260901230039 27 165 17.7 35.4 0.00 0.00 0.00 26 1009.8
20260901224534 27 169 12.9 27.4 0.00 0.00 0.00 26 1010.0
20260901223038 27 172 16.1 30.6 0.00 0.00 0.00 26 1010.0
20260901221534 27 161 17.7 35.4 0.00 0.00 0.00 26 1010.3
20260901214533 26 179 16.1 29.0 0.00 0.00 0.00 26 1010.5
20260901213101 27 161 11.3 30.6 0.00 0.00 0.00 26 1010.7
20260901211537 26 173 14.5 32.2 0.00 0.00 0.00 27 1010.8
20260901210035 26 152 14.5 32.2 0.00 0.00 0.00 26 1011.0
20260901204539 26 155 20.9 32.2 0.00 0.00 0.00 26 1011.0
20260901203052 26 150 19.3 33.8 0.00 0.00 0.00 26 1011.2
20260901201535 26 142 19.3 35.4 0.00 0.00 0.00 27 1011.5
20260901200037 26 170 19.3 37.0 0.00 0.00 0.00 28 1011.6
20260901194542 25 150 24.1 37.0 0.00 0.00 0.00 29 1011.8
20260901193046 25 138 20.9 35.4 0.00 0.00 0.00 29 1011.9
20260901191535 25 138 27.4 45.1 0.00 0.00 0.00 29 1012.0
20260901190036 25 145 24.1 37.0 0.00 0.00 0.00 32 1012.1
20260901184534 25 142 25.7 41.8 0.00 0.00 0.00 31 1012.5
20260901183045 24 133 20.9 38.6 0.00 0.00 0.00 32 1012.6
20260901181537 23 135 24.1 35.4 0.00 0.00 0.00 35 1012.7
20260901180034 23 136 25.7 38.6 0.00 0.00 0.00 35 1012.9
20260901174534 22 153 20.9 32.2 0.00 0.00 0.00 38 1013.0
20260901173050 21 138 22.5 35.4 0.00 0.00 0.00 40 1013.2
20260901171540 20 146 20.9 38.6 0.00 0.00 0.00 42 1013.2
20260901170034 20 132 22.5 35.4 0.00 0.00 0.00 42 1013.4
20260901164536 20 155 25.7 37.0 0.00 0.00 0.00 43 1013.4
20260901163036 20 164 19.3 32.2 0.00 0.00 0.00 44 1013.5
20260901161537 19 145 17.7 29.0 0.00 0.00 0.00 45 1013.5
20260901160038 18 131 20.9 27.4 0.00 0.00 0.00 47 1013.6
20260901154538 18 147 12.9 22.5 0.00 0.00 0.00 48 1013.7
20260901153036 17 156 9.7 16.1 0.00 0.00 0.00 51 1013.9
20260901151534 17 171 8.0 14.5 0.00 0.00 0.00 53 1013.9
20260901150036 17 129 3.2 9.7 0.00 0.00 0.00 55 1014.1
20260901144534 16 115 8.0 12.9 0.00 0.00 0.00 57 1013.9
20260901143043 15 86 4.8 8.0 0.00 0.00 0.00 61 1013.8
20260901141542 13 65 4.8 8.0 0.00 0.00 0.00 68 1013.8
20260901140050 12 351 1.6 4.8 0.00 0.00 0.00 72 1013.6
20260901134537 11 355 1.6 4.8 0.00 0.00 0.00 76 1013.5
20260901133038 10 355 3.2 8.0 0.00 0.00 0.00 78 1013.6
20260901131538 10 355 4.8 8.0 0.00 0.00 0.00 78 1013.5
20260901130043 9 14 4.8 8.0 0.00 0.00 0.00 78 1013.5
20260901124537 9 21 6.4 9.7 0.00 0.00 0.00 77 1013.6
20260901123035 9 38 6.4 8.0 0.00 0.00 0.00 77 1013.6
20260901121533 9 44 4.8 8.0 0.00 0.00 0.00 76 1013.7